TimeCDT,TemperatureF,Dew PointF,Humidity,Sea Level PressureIn,VisibilityMPH,Wind Direction,Wind SpeedMPH,Gust SpeedMPH,PrecipitationIn,Events,Conditions,WindDirDegrees,DateUTC
12:35 AM,30.9,28.9,92,29.86,6.0,West,11.5,-,0.00,Rain,Light Freezing Rain,280,2013-03-11 05:35:00
12:52 AM,30.9,28.9,92,29.88,9.0,West,13.8,-,0.00,,Overcast,280,2013-03-11 05:52:00
1:10 AM,30.0,28.0,92,29.86,8.0,West,17.3,24.2,0.00,Rain,Light Freezing Rain,270,2013-03-11 06:10:00
1:19 AM,30.0,28.0,92,29.86,9.0,West,16.1,25.3,0.00,,Overcast,270,2013-03-11 06:19:00
1:52 AM,30.0,28.0,92,29.87,7.0,West,16.1,23.0,0.00,,Overcast,280,2013-03-11 06:52:00
2:14 AM,30.0,27.0,88,29.85,7.0,West,16.1,-,0.00,Rain,Light Freezing Rain,280,2013-03-11 07:14:00
2:24 AM,28.4,26.6,93,29.85,7.0,WNW,20.7,26.5,N/A,,Overcast,290,2013-03-11 07:24:00
2:47 AM,28.4,26.6,93,29.84,10.0,WNW,16.1,23.0,0.00,,Overcast,290,2013-03-11 07:47:00
2:52 AM,28.9,26.1,89,29.85,9.0,WNW,11.5,23.0,0.00,,Overcast,300,2013-03-11 07:52:00
3:06 AM,28.9,26.1,89,29.84,6.0,WNW,11.5,-,0.00,Rain,Light Freezing Rain,290,2013-03-11 08:06:00
3:25 AM,28.0,26.1,92,29.84,9.0,West,16.1,24.2,0.00,,Overcast,280,2013-03-11 08:25:00
3:44 AM,28.0,25.0,88,29.85,10.0,West,16.1,-,0.00,,Overcast,280,2013-03-11 08:44:00
3:52 AM,28.0,26.1,92,29.88,9.0,West,15.0,26.5,0.00,,Overcast,270,2013-03-11 08:52:00
4:52 AM,28.4,24.8,86,29.87,9.0,West,12.7,-,N/A,,Overcast,280,2013-03-11 09:52:00
5:10 AM,28.0,25.0,88,29.87,9.0,West,11.5,-,N/A,,Overcast,280,2013-03-11 10:10:00
5:35 AM,28.0,24.1,85,29.87,9.0,West,16.1,24.2,N/A,,Overcast,270,2013-03-11 10:35:00
5:52 AM,28.0,24.1,85,29.90,10.0,West,15.0,26.5,N/A,,Overcast,270,2013-03-11 10:52:00
6:52 AM,28.0,24.1,85,29.91,9.0,West,17.3,-,0.00,Snow,Light Snow,280,2013-03-11 11:52:00
7:13 AM,27.0,23.0,85,29.87,10.0,WNW,16.1,24.2,0.00,,Overcast,290,2013-03-11 12:13:00
7:27 AM,27.0,24.1,89,29.87,10.0,WNW,11.5,-,0.00,,Overcast,290,2013-03-11 12:27:00
7:52 AM,28.0,24.1,85,29.90,10.0,West,15.0,20.7,0.00,,Overcast,280,2013-03-11 12:52:00
8:52 AM,28.0,23.0,81,29.92,10.0,WNW,17.3,-,N/A,,Overcast,290,2013-03-11 13:52:00
9:52 AM,28.0,23.0,81,29.94,10.0,WNW,12.7,23.0,N/A,,Overcast,290,2013-03-11 14:52:00
10:52 AM,28.0,24.1,85,29.96,10.0,West,12.7,-,N/A,,Overcast,270,2013-03-11 15:52:00
11:39 AM,30.0,24.1,79,29.93,10.0,West,16.1,-,N/A,,Overcast,270,2013-03-11 16:39:00
11:52 AM,30.0,24.1,79,29.96,10.0,WNW,13.8,-,N/A,,Overcast,290,2013-03-11 16:52:00
12:52 PM,33.1,26.1,75,29.96,10.0,WNW,11.5,-,N/A,,Overcast,290,2013-03-11 17:52:00
1:52 PM,34.0,26.1,73,29.95,10.0,West,17.3,23.0,N/A,,Overcast,280,2013-03-11 18:52:00
2:44 PM,36.0,27.0,70,29.90,10.0,WNW,10.4,18.4,N/A,,Scattered Clouds,290,2013-03-11 19:44:00
2:52 PM,36.0,26.1,67,29.93,10.0,WNW,11.5,-,N/A,,Scattered Clouds,300,2013-03-11 19:52:00
2:59 PM,37.0,26.1,65,29.90,10.0,West,18.4,24.2,N/A,,Mostly Cloudy,280,2013-03-11 19:59:00
3:28 PM,39.0,26.1,60,29.92,10.0,West,19.6,26.5,N/A,,Overcast,260,2013-03-11 20:28:00
3:52 PM,39.9,26.1,58,29.95,10.0,WNW,11.5,-,N/A,,Scattered Clouds,300,2013-03-11 20:52:00
4:52 PM,41.0,24.1,51,29.94,10.0,West,12.7,-,N/A,,Clear,270,2013-03-11 21:52:00
5:52 PM,41.0,24.1,51,29.94,10.0,West,15.0,-,N/A,,Clear,270,2013-03-11 22:52:00
6:52 PM,39.0,23.0,53,29.96,10.0,West,13.8,-,N/A,,Clear,280,2013-03-11 23:52:00
7:52 PM,37.0,23.0,57,29.99,10.0,West,8.1,-,N/A,,Clear,280,2013-03-12 00:52:00
8:52 PM,35.1,23.0,61,29.99,10.0,West,5.8,-,N/A,,Clear,270,2013-03-12 01:52:00
9:52 PM,35.1,23.0,61,30.01,10.0,WNW,3.5,-,N/A,,Clear,290,2013-03-12 02:52:00
10:52 PM,34.0,23.0,64,30.04,10.0,West,3.5,-,N/A,,Clear,280,2013-03-12 03:52:00
11:52 PM,28.9,21.9,75,30.03,10.0,Calm,Calm,-,N/A,,Clear,0,2013-03-12 04:52:00